Location: Unspecified
(0.0000°N, 0.0000°E)
Time: 13:07:20
(UTC+02:00)

Cosmos 2219 - Visible Passes

Search period start: 30 July 2014 00:00
Search period end: 09 August 2014 00:00
Orbit: 834 x 860 km, 71.1° (Epoch: 29 July)

Date Brightness Start Highest point End Pass type
(mag) Time Alt. Az. Time Alt. Az. Time Alt. Az.
30 Jul 3.1 20:58:29 10° SSW 21:04:12 78° ESE 21:09:55 10° NNE visible
31 Jul 3.2 20:45:08 10° S 20:50:52 76° ESE 20:56:34 10° NNE visible
01 Aug 3.2 20:31:48 10° S 20:37:31 74° ESE 20:43:13 10° NNE visible
02 Aug 6.3 07:35:06 10° NNE 07:38:53 19° ENE 07:42:40 10° ESE visible
03 Aug 6.3 07:21:51 10° NNE 07:25:33 18° ENE 07:29:14 10° ESE visible
04 Aug 6.3 07:08:36 10° NE 07:12:12 17° ENE 07:15:47 10° ESE visible
05 Aug 6.3 06:55:21 10° NE 06:58:51 17° ENE 07:02:21 10° ESE visible
06 Aug 6.2 06:42:07 10° NE 06:45:30 16° ENE 06:48:54 10° ESE visible
07 Aug 6.2 06:28:53 10° NE 06:32:10 16° ENE 06:35:26 10° ESE visible
08 Aug 6.1 06:15:39 10° NE 06:18:49 15° ENE 06:21:59 10° ESE visible
